Location: ??????
(38.1303°N, 24.0039°E)
Time: 19:15:00
(UTC+00:00)

DELTA 2 R/B (1) - Pass Details

Date: 17 October 2021
Orbit: 790 x 802 km, 39.6° (Epoch: 01 December)

Event Time Altitude Azimuth Distance (km) Brightness Sun altitude
Exits shadow 03:35:03 17° 270° (W) 1,893 4.9 -12.5°
Maximum altitude 03:38:50 41° 209° (SSW) 1,137 4.2 -11.7°
Drops below altitude 10° 03:43:58 10° 140° (SE) 2,343 6.7 -10.7°
Sets 03:46:34 0° 133° (SE) 3,271 7.6 -10.2°
